Winfield, KS

9:49 PM CDT on May 25, 2018 (GMT -0500)
Strother

Weather History for KWLD - January, 2014

Change the Weather History Date:

Thursday, January 23, 2014

  Actual Average Record
Temperature  
Mean Temperature 11 °F -  
Max Temperature 19 °F 43 °F 59 °F (2013)
Min Temperature 3 °F 23 °F 3 °F (2003)
Degree Days  
Heating Degree Days 54    
Moisture  
Dew Point -6 °F    
Average Humidity 45    
Maximum Humidity 66    
Minimum Humidity 30    
Precipitation  
Precipitation 0.00 in - - ()
Sea Level Pressure  
Sea Level Pressure 30.78 in    
Wind  
Wind Speed 15 mph (North)    
Max Wind Speed 23 mph    
Max Gust Speed 29 mph    
Visibility 10 miles    
Events      
Averages and records for this station are not official NWS values.
T = Trace of Precipitation, MM = Missing Value Source: NWS Daily Summary

Daily Weather History Graph

Daily Weather History Graph

Search for Another Location

Airport or City:

Astronomy

Jan. 23, 2014 Rise Set
Actual Time 7:37 AM CST 5:43 PM CST
Civil Twilight 7:09 AM CST 6:11 PM CST
Nautical Twilight 6:37 AM CST 6:42 PM CST
Astronomical Twilight 6:06 AM CST 7:13 PM CST
Moon 12:05 AM CST (1/23) 11:23 AM CST (1/23)
Length of Visible Light 11h 01m
Length of Day
10h 05m
Waning Gibbous, 55% of the Moon is Illuminated
Jan 23
Waning Gibbous
Jan 23
Last Quarter
Jan 30
New
Feb 6
First Quarter
Feb 14
Full

Hourly Weather History & Observations

Time (CST) Temp. Windchill Dew Point Humidity Pressure Visibility Wind Dir Wind Speed Gust Speed Precip Events Conditions
12:54 AM 19.9 °F 3.5 °F 1.9 °F 46% 30.50 in 10.0 mi North 21.9 mph 27.6 mph N/A   Clear
1:54 AM 17.1 °F 2.0 °F -2.9 °F 41% 30.55 in 10.0 mi NNE 16.1 mph 27.6 mph N/A   Clear
2:54 AM 12.9 °F -4.4 °F -6.0 °F 43% 30.60 in 10.0 mi NNE 18.4 mph 28.8 mph N/A   Clear
3:54 AM 12.0 °F -6.9 °F -7.1 °F 42% 30.62 in 10.0 mi NNE 21.9 mph 28.8 mph N/A   Clear
4:54 AM 10.9 °F -5.4 °F -7.1 °F 44% 30.65 in 10.0 mi NNE 15.0 mph - N/A   Scattered Clouds
5:54 AM 10.0 °F -7.1 °F -6.0 °F 48% 30.70 in 10.0 mi North 16.1 mph - N/A   Mostly Cloudy
6:54 AM 10.0 °F -7.6 °F -7.1 °F 46% 30.74 in 10.0 mi North 17.3 mph - N/A   Scattered Clouds
7:54 AM 10.0 °F -7.6 °F -7.1 °F 46% 30.77 in 10.0 mi North 17.3 mph - N/A   Scattered Clouds
8:54 AM 10.0 °F -10.0 °F -7.1 °F 46% 30.82 in 10.0 mi North 23.0 mph - N/A   Mostly Cloudy
9:54 AM 10.9 °F -7.5 °F -6.0 °F 47% 30.85 in 10.0 mi North 19.6 mph - N/A   Overcast
10:54 AM 12.9 °F -3.4 °F -5.1 °F 45% 30.89 in 10.0 mi North 16.1 mph - N/A   Scattered Clouds
11:54 AM 16.0 °F 2.3 °F -4.0 °F 41% 30.89 in 10.0 mi North 12.7 mph - N/A   Clear
12:54 PM 15.1 °F 0.5 °F -5.1 °F 41% 30.87 in 10.0 mi NNE 13.8 mph - N/A   Clear
1:54 PM 18.0 °F 4.2 °F -5.1 °F 36% 30.85 in 10.0 mi North 13.8 mph 17.3 mph N/A   Clear
2:54 PM 19.0 °F 6.8 °F -5.1 °F 34% 30.85 in 10.0 mi North 11.5 mph - N/A   Clear
3:54 PM 19.9 °F 8.6 °F -7.1 °F 30% 30.84 in 10.0 mi North 10.4 mph - N/A   Clear
4:54 PM 19.0 °F 6.1 °F -6.0 °F 33% 30.84 in 10.0 mi North 12.7 mph - N/A   Clear
5:54 PM 12.0 °F 1.5 °F -8.0 °F 41% 30.84 in 10.0 mi North 6.9 mph - N/A   Clear
6:54 PM 10.9 °F 2.9 °F -7.1 °F 44% 30.86 in 10.0 mi NW 4.6 mph - N/A   Clear
7:54 PM 8.1 °F 1.4 °F -7.1 °F 50% 30.86 in 10.0 mi West 3.5 mph - N/A   Clear
8:54 PM 8.1 °F - -6.0 °F 53% 30.85 in 10.0 mi Calm Calm - N/A   Clear
9:54 PM 8.1 °F - -6.0 °F 53% 30.83 in 10.0 mi Calm Calm - N/A   Clear
10:54 PM 3.0 °F - -6.0 °F 66% 30.84 in 10.0 mi Calm Calm - N/A   Clear
11:54 PM 5.0 °F - -4.0 °F 66% 30.81 in 10.0 mi Calm Calm - N/A   Clear